Theta_e
337 342 338 334 332 329 336 340 333 335 339 335 332 334 332 329 327 332 343 340 332 343 358 351 345 346 341 338 338 333 329 329 331 333 333 335 335 332 331 332 330 329 331 326 318 316 319 319 320 321 322 322 323 322 322 323 322 323 323 324 323 322 323 323 324 324 324 324 325 325 324 322 321 322 322 323 324 324 322 321 322 324 326 328 329 329 328
328 336 335 335 337 330 332 338 337 338 343 340 335 339 336 329 329 338 342 341 342 347 349 345 340 338 337 336 334 332 331 331 335 337 336 335 334 330 330 332 330 329 329 322 316 316 318 318 319 320 321 322 323 322 322 323 322 323 323 323 323 323 323 323 323 324 324 324 325 325 323 321 321 322 322 323 323 324 323 320 319 320 323 325 327 327 327
326 338 339 338 340 335 329 331 335 337 339 335 332 336 337 330 328 336 337 338 344 345 340 340 339 337 336 334 336 343 344 342 342 341 339 336 334 330 328 330 329 328 327 321 315 316 318 318 320 320 321 322 322 322 322 323 323 323 322 322 323 322 323 323 323 324 324 324 324 324 322 321 321 321 321 322 322 324 324 323 321 320 320 322 323 323 323
324 336 341 344 343 334 329 332 337 338 336 334 333 336 337 334 335 337 331 334 350 350 339 337 339 341 339 338 346 353 350 348 345 344 345 343 340 334 328 329 329 328 329 324 317 316 318 319 320 320 321 322 322 322 323 322 323 323 323 323 322 322 323 323 323 324 323 324 323 323 323 322 321 320 320 320 322 323 324 324 323 322 321 320 320 320 321
323 334 340 343 338 328 329 341 348 345 341 340 335 332 333 335 340 343 335 338 353 348 336 334 337 341 340 342 350 346 340 345 345 342 344 344 342 338 330 329 331 328 325 321 316 317 318 319 320 321 321 322 322 323 323 323 324 323 323 323 322 323 323 322 323 324 323 324 324 323 324 323 321 321 320 320 321 321 322 323 324 324 323 322 321 321 321
324 337 342 335 325 324 333 343 346 342 337 339 337 338 343 340 337 339 337 338 343 343 341 342 341 344 340 337 339 334 332 341 346 345 346 343 341 339 334 332 333 324 318 316 317 319 320 321 321 321 321 322 322 324 323 323 324 323 323 324 323 323 323 322 323 323 323 323 323 323 323 323 322 322 320 320 320 320 320 321 322 324 324 323 323 323 322
327 339 344 331 322 333 344 341 336 335 333 336 338 342 350 345 336 336 337 337 342 346 347 344 341 344 344 338 336 332 329 336 343 345 346 345 345 347 345 345 337 320 312 315 318 319 320 321 322 321 322 322 322 323 323 322 323 323 324 324 324 324 324 323 324 323 323 323 323 322 323 323 322 322 321 320 320 320 320 320 321 322 322 322 323 323 323
327 331 333 330 330 340 344 333 327 327 329 330 328 329 343 349 339 336 339 343 349 350 349 345 336 335 341 339 331 326 327 331 337 340 341 341 345 344 337 334 328 317 314 317 318 319 321 321 321 322 321 322 322 322 322 322 323 323 323 323 324 324 324 324 324 323 323 323 322 322 322 322 322 322 321 321 320 320 320 320 320 320 320 321 321 321 322
332 334 332 333 332 332 337 335 329 327 332 339 334 328 341 353 342 334 339 346 347 347 345 340 332 333 340 338 327 326 328 330 332 333 330 328 330 328 320 318 319 317 318 320 319 319 321 320 320 321 321 321 321 321 322 322 322 322 322 322 323 324 324 324 324 324 323 323 322 323 322 322 322 321 321 321 321 320 320 320 320 320 320 321 321 321 321
334 339 332 330 328 328 341 351 342 334 338 348 344 329 334 351 344 333 336 341 343 343 337 331 334 339 339 332 331 332 329 328 330 328 320 316 318 319 318 319 321 320 319 320 320 320 321 321 321 322 321 322 322 321 322 322 321 322 322 322 323 323 323 323 323 322 323 322 322 323 322 322 322 321 321 321 321 321 320 320 320 320 320 320 320 321 321
332 333 329 330 330 332 344 354 348 337 331 338 338 326 331 350 346 333 335 338 341 344 338 332 333 335 333 335 343 342 332 328 332 331 324 318 318 319 321 321 322 322 321 322 322 321 321 321 322 322 322 322 322 321 322 322 322 322 322 322 322 322 322 323 323 322 322 321 321 321 321 322 322 322 322 321 321 321 320 320 320 320 320 320 320 320 320
331 330 331 333 331 329 336 345 345 333 327 333 334 328 338 357 349 334 335 339 341 344 340 333 329 332 338 340 341 340 332 324 324 325 325 321 318 319 321 321 322 322 321 321 320 319 319 320 320 320 321 321 321 321 321 321 321 321 321 321 322 322 322 323 323 323 323 322 321 321 321 321 321 321 321 321 321 320 320 320 320 319 319 319 319 320 320
334 330 328 329 331 334 339 344 342 332 327 328 330 331 345 359 349 333 332 337 341 341 337 332 329 335 342 338 334 335 332 327 323 320 319 318 318 318 319 320 321 320 319 318 318 317 317 317 317 318 318 318 319 319 320 320 321 321 321 321 321 321 322 322 322 323 323 323 323 322 321 321 321 321 321 320 320 320 319 319 319 319 319 319 319 321 321
332 331 330 328 330 334 338 338 334 328 324 327 335 338 341 345 345 337 332 337 341 337 335 338 340 339 336 333 334 333 331 330 325 318 315 316 316 316 317 318 318 318 317 317 316 316 316 317 317 317 317 317 317 317 317 318 318 319 320 321 321 321 321 321 322 322 323 324 324 323 322 321 321 321 321 321 320 320 319 319 318 318 318 318 318 319 320
330 327 326 329 332 331 329 328 326 324 326 334 344 345 336 333 338 339 337 339 338 333 335 340 340 338 334 332 331 329 326 326 322 316 314 315 314 316 317 316 317 317 316 316 316 316 317 317 318 318 317 317 317 316 316 317 317 317 318 319 321 321 321 322 322 322 322 324 324 323 323 322 321 321 322 321 321 320 319 318 318 318 318 318 317 318 319
334 331 330 338 343 337 330 329 331 335 333 331 334 340 337 333 335 338 341 342 335 332 336 338 336 335 334 330 327 325 323 323 320 316 314 313 314 316 316 316 317 317 317 317 316 316 317 317 318 318 317 317 317 316 316 317 316 316 316 317 319 321 322 322 322 322 323 323 322 322 322 321 321 321 321 321 321 320 320 318 318 317 318 318 317 317 317
336 340 340 340 338 334 330 329 333 339 337 330 328 332 334 335 335 334 337 340 335 331 333 334 334 334 331 327 326 325 323 322 321 318 315 314 315 315 315 316 318 317 317 317 316 316 317 316 316 316 316 316 316 316 316 317 317 317 317 318 320 321 321 322 321 321 321 321 321 321 321 322 322 322 322 321 321 320 319 318 317 317 317 317 316 316 317
331 332 334 332 331 336 339 334 331 333 334 334 332 330 331 335 335 332 333 337 338 333 330 331 332 331 328 327 325 324 323 323 319 314 313 314 315 315 316 316 317 317 317 316 315 315 315 315 315 315 315 315 315 315 316 317 318 318 318 319 319 318 319 319 318 319 319 319 319 319 319 319 319 319 319 319 320 320 319 318 318 317 317 317 317 317 317
329 328 334 335 333 338 343 340 335 333 332 332 331 330 333 335 334 334 336 336 334 331 328 329 332 329 326 327 326 323 324 325 319 313 312 314 314 315 316 316 316 316 315 313 313 313 312 313 314 314 314 315 315 315 315 315 316 317 317 316 315 315 315 315 314 315 315 315 315 314 314 314 313 313 313 313 314 315 316 317 318 318 318 319 318 318 318
331 330 333 336 336 337 340 339 337 334 332 331 330 331 333 333 332 332 331 328 329 331 328 328 330 328 323 325 327 324 323 323 317 312 312 314 314 315 315 315 314 314 312 311 311 311 312 313 313 313 313 314 314 314 315 315 315 315 315 315 314 314 314 314 314 315 315 314 314 313 313 313 312 311 311 311 310 310 311 312 314 315 316 317 317 317 318
338 331 328 334 337 337 340 341 337 334 333 332 331 332 333 332 332 331 325 320 321 324 324 325 328 328 322 321 324 325 324 321 315 312 312 314 314 314 313 312 312 312 311 311 311 311 312 312 313 313 313 313 313 314 314 314 315 315 315 315 315 314 314 314 314 314 314 314 314 314 314 314 314 313 313 312 312 311 310 309 309 310 311 312 313 314 314
341 335 330 332 331 332 339 337 331 332 333 331 331 334 334 334 333 332 330 325 318 315 315 318 325 329 324 318 319 323 322 317 313 312 313 314 314 313 311 311 312 312 312 312 312 312 312 312 312 312 312 312 313 313 313 314 314 314 314 314 313 313 313 312 312 312 312 312 312 312 312 313 313 313 313 313 313 313 312 310 310 309 309 310 311 311 311
338 335 334 333 328 330 337 333 328 330 331 330 332 332 330 331 329 327 330 330 324 318 314 311 316 323 321 314 316 320 317 312 311 312 314 314 314 313 313 313 314 313 312 312 311 311 310 310 309 309 309 310 311 311 312 314 314 313 313 313 312 312 311 311 311 311 311 312 312 312 312 311 309 309 310 311 311 312 312 311 310 310 310 310 311 312 311
330 328 334 335 330 328 331 330 329 328 325 328 335 334 330 329 323 318 323 326 321 320 319 313 310 314 314 311 313 316 314 310 310 311 312 314 314 313 313 313 313 313 313 312 310 309 309 309 309 308 307 308 309 311 312 313 312 311 310 309 309 309 308 306 306 307 308 309 309 309 309 308 307 306 306 307 308 309 310 310 309 310 310 310 311 312 313
322 323 331 332 330 331 330 327 326 322 317 322 332 331 327 325 317 312 316 318 314 314 318 316 312 311 312 311 312 313 311 309 310 310 311 313 313 312 312 313 312 313 313 311 310 309 310 310 310 308 307 308 309 310 310 309 307 306 305 305 305 305 304 303 304 304 305 305 305 306 305 305 305 305 305 305 305 306 308 309 310 310 311 311 311 311 312
326 326 325 322 325 329 326 323 324 322 316 318 326 324 318 316 312 309 310 311 310 310 312 311 310 312 313 313 312 311 310 309 310 310 311 311 311 312 312 312 313 313 313 312 311 310 310 310 309 307 307 308 309 307 305 304 303 303 303 303 303 303 303 303 304 305 305 305 305 305 305 305 305 305 305 305 305 305 306 307 308 309 309 311 311 311 312
327 326 322 319 322 328 324 320 321 319 313 312 317 316 311 310 311 309 309 309 310 311 312 313 313 314 314 313 312 311 311 310 310 310 310 310 311 311 311 311 312 312 312 312 312 310 309 308 307 306 307 308 308 306 304 303 303 304 304 304 304 305 305 304 304 305 306 306 306 306 306 305 305 305 305 305 306 305 305 305 305 306 307 309 310 311 311
325 324 322 320 322 325 321 315 313 313 310 309 310 310 310 311 312 314 316 316 314 314 315 316 317 317 315 314 313 313 311 310 310 310 310 310 310 311 311 311 311 311 311 312 312 311 310 308 306 305 307 307 308 307 305 303 304 305 305 305 306 305 305 305 305 305 305 306 307 307 306 306 305 305 305 305 305 305 306 305 305 306 306 308 309 310 310
322 321 319 319 319 318 315 312 312 314 313 311 311 310 311 314 316 318 320 318 314 313 315 314 314 315 314 314 314 313 312 312 311 311 311 311 310 311 311 311 311 311 311 311 312 312 312 310 306 305 306 307 308 308 306 304 304 305 305 305 306 305 305 305 305 305 306 306 307 307 306 306 305 305 305 306 306 306 306 306 306 306 306 307 308 309 309
319 317 316 316 315 314 315 315 316 316 315 315 315 314 313 315 318 319 318 315 313 314 314 311 311 312 312 312 313 313 312 312 312 311 311 310 310 310 311 311 311 310 310 310 310 311 312 311 307 306 307 307 307 308 307 304 304 306 306 306 306 305 305 305 305 306 306 306 307 308 306 305 305 305 306 306 306 307 306 307 307 307 307 307 308 308 309
317 315 314 313 313 313 315 315 315 315 315 315 317 318 317 318 320 320 319 318 316 314 312 310 310 312 311 311 311 311 311 311 311 310 310 309 308 309 309 309 310 309 308 308 309 309 311 311 309 307 308 308 307 308 308 306 305 306 306 306 306 306 306 306 305 305 306 306 307 308 306 305 305 305 306 306 307 307 307 307 307 307 307 307 308 308 309
316 315 314 314 314 314 314 315 315 315 315 316 318 320 319 318 319 319 319 317 315 312 311 310 311 311 311 311 311 311 310 311 310 309 309 307 307 307 307 306 307 307 307 307 307 308 310 312 311 309 309 308 307 308 308 307 307 306 305 305 306 306 306 306 306 305 305 305 306 307 307 306 305 305 306 306 306 306 306 307 307 307 307 307 308 309 309
317 316 315 315 316 315 316 316 316 316 317 318 318 315 312 312 313 314 314 313 311 310 311 311 311 311 311 311 310 309 309 310 310 309 308 307 306 306 306 305 305 306 306 306 306 308 310 312 311 310 309 308 308 307 307 307 308 307 307 306 306 306 306 306 306 306 305 305 305 306 306 306 305 305 305 306 306 306 306 307 307 308 308 308 308 308 308
317 317 316 315 315 315 316 316 316 316 316 315 313 311 310 310 311 311 311 311 310 311 311 311 311 311 311 310 309 307 307 309 309 308 307 306 306 306 305 305 305 305 305 305 306 308 310 311 311 310 308 308 308 307 306 305 306 306 306 307 306 306 306 306 305 306 305 304 304 305 306 306 305 305 305 306 306 306 306 307 307 307 307 308 307 306 306
313 313 313 312 312 312 313 314 315 316 316 316 315 312 310 311 311 310 311 311 311 311 311 310 310 309 309 309 308 306 306 306 306 306 305 306 305 305 305 305 305 305 306 306 307 308 309 310 310 309 308 306 306 306 305 304 303 303 303 304 304 304 304 304 304 304 304 304 303 304 305 306 306 305 305 306 306 306 306 307 307 307 307 306 306 304 304
310 312 313 311 310 311 311 311 312 312 312 312 313 311 309 309 310 310 310 311 310 310 310 309 308 308 308 308 308 307 307 306 305 304 304 304 304 304 304 304 305 305 306 307 307 308 309 310 309 307 305 304 304 304 303 303 303 302 302 302 303 303 303 303 303 303 303 303 303 303 305 306 306 305 305 306 306 306 307 307 307 307 306 305 305 304 304
310 312 312 310 309 310 311 310 310 310 310 309 309 310 309 310 310 310 309 309 309 309 309 308 308 307 307 307 307 307 307 306 305 304 304 304 304 304 303 303 303 303 303 304 304 305 306 307 306 304 302 302 302 302 302 302 302 302 302 303 303 303 303 303 303 304 304 304 304 304 305 306 306 306 306 306 306 306 306 306 307 306 305 304 304 304 303
311 311 312 311 310 311 311 310 309 309 309 309 309 309 309 309 309 308 307 307 306 307 306 307 307 306 306 306 306 306 305 305 304 304 304 304 304 303 302 301 301 301 301 301 301 302 303 303 303 302 302 302 302 302 302 303 303 303 303 303 303 304 304 304 304 304 305 304 304 305 306 306 306 306 305 305 305 305 306 307 306 305 304 304 303 303 303
310 309 309 309 308 307 307 308 308 308 309 310 309 309 309 309 307 306 305 305 305 305 305 305 305 304 304 305 305 304 304 304 304 304 304 303 303 302 301 301 300 300 301 301 302 302 302 302 302 302 303 303 303 303 303 303 303 303 303 303 303 304 304 304 305 305 305 305 305 305 306 306 306 306 305 305 305 305 306 306 305 304 303 303 302 302 302
308 307 306 305 305 305 305 306 306 307 308 309 309 308 308 307 305 305 305 304 304 304 304 304 304 304 304 304 304 303 303 303 303 303 302 302 302 301 301 301 301 302 302 302 303 303 303 303 303 303 303 303 303 303 303 303 303 303 303 303 303 303 303 303 304 304 304 304 304 305 305 305 305 305 305 305 305 305 306 305 304 303 302 302 302 302 302
307 306 305 305 305 305 305 305 305 306 307 308 307 306 306 305 305 305 305 304 304 304 304 304 303 303 303 303 303 303 303 302 302 302 301 301 302 301 301 301 302 303 303 303 303 303 303 303 303 303 303 303 302 302 302 301 301 301 301 302 302 302 303 303 304 304 304 303 303 304 304 304 304 304 304 304 305 305 305 304 303 302 302 301 301 301 301
306 305 305 305 305 305 305 305 305 305 305 306 305 305 305 305 305 305 304 304 303 303 303 303 303 303 303 303 302 302 302 302 302 302 302 301 301 301 301 302 303 303 303 303 303 303 303 303 302 302 302 301 301 300 300 300 301 301 301 301 302 303 303 303 303 304 303 303 303 304 304 304 304 303 303 304 305 305 304 303 302 302 301 301 300 300 300
305 305 305 305 305 305 305 305 305 305 305 305 306 305 305 305 305 304 304 303 303 302 302 303 303 302 302 302 302 302 302 302 302 302 302 302 302 302 302 302 303 303 303 303 303 303 303 302 301 300 300 299 299 300 300 300 301 301 301 302 303 303 303 302 302 302 302 302 302 303 303 304 304 304 304 304 304 304 303 302 302 301 300 300 299 299 299
306 306 306 305 306 306 305 305 306 306 306 306 306 306 305 305 304 304 303 303 302 302 302 302 302 302 302 302 302 302 302 302 302 302 302 302 302 303 303 303 303 303 303 302 303 303 302 301 300 300 299 299 300 300 300 300 300 301 301 302 303 303 302 301 301 300 300 301 301 301 302 303 303 304 304 304 304 303 302 301 301 300 300 299 299 299 298
306 306 306 306 306 306 305 306 306 305 306 306 305 305 305 305 304 303 303 302 302 302 302 302 302 301 301 302 302 302 302 302 302 302 302 302 302 303 302 302 302 303 302 303 302 303 302 301 300 299 300 300 300 300 300 300 301 301 301 302 302 302 301 300 300 299 299 299 300 300 300 301 302 302 303 303 303 302 302 301 300 300 299 298 298 297 296
305 306 306 306 306 305 305 306 306 305 306 306 305 304 305 304 303 303 303 302 302 302 302 301 301 301 301 301 302 302 302 302 302 302 302 302 302 302 302 302 302 302 302 302 302 302 302 301 300 300 300 300 300 301 301 301 301 301 301 301 301 301 300 300 299 299 299 299 299 299 299 299 300 301 302 302 302 302 301 301 300 299 298 298 297 296 296
304 304 305 305 305 305 305 305 305 305 305 304 304 304 304 304 303 303 302 302 302 302 301 301 301 301 301 301 301 302 302 302 302 302 302 302 302 302 302 301 301 301 301 301 300 300 301 301 301 300 300 300 300 300 301 301 301 301 301 301 301 301 301 300 300 299 299 299 299 299 299 299 299 299 300 301 302 302 301 300 300 299 298 297 297 296 296
304 304 304 304 304 304 304 304 304 303 303 303 303 304 304 304 303 303 302 302 302 302 301 301 301 301 301 301 302 302 302 302 302 302 301 301 301 301 301 300 300 300 300 300 300 300 300 300 301 300 300 299 300 300 300 301 300 300 300 300 300 300 300 300 300 300 299 299 299 299 299 298 298 298 298 299 301 301 301 300 300 299 298 297 297 297 297
304 304 303 303 303 303 303 303 303 302 302 303 303 303 304 303 303 302 302 302 302 301 301 301 301 301 301 302 302 302 302 301 301 301 301 301 300 300 300 300 300 300 300 300 300 300 299 299 299 299 299 299 300 300 300 300 300 300 300 300 299 299 299 299 299 299 299 299 298 298 297 297 297 297 297 298 300 301 300 300 300 299 298 298 297 298 297
304 303 303 302 302 302 302 302 301 301 301 302 303 303 303 303 303 302 302 302 301 301 301 301 301 301 302 302 301 302 301 301 301 301 300 300 300 300 300 300 300 300 300 300 299 299 299 299 299 299 299 299 300 300 300 300 300 299 299 298 298 298 298 297 297 297 297 297 296 296 296 296 296 296 296 297 299 300 300 300 300 300 299 298 298 298 297
303 302 301 301 301 301 301 301 302 302 301 302 302 303 303 303 302 302 302 302 301 301 301 301 301 301 301 301 301 301 301 301 301 300 300 300 300 299 299 299 299 299 299 299 299 299 299 299 298 299 299 299 300 299 299 299 299 298 298 297 296 296 296 296 296 296 296 296 295 295 295 295 294 294 295 297 298 300 300 299 299 299 298 298 298 298 297
300 300 300 301 301 302 302 302 302 302 302 302 302 303 303 302 302 302 302 302 301 301 301 301 301 301 301 301 301 301 301 301 300 300 300 299 299 299 299 299 299 299 299 299 299 298 299 299 299 299 299 299 299 299 298 298 297 297 296 296 295 295 295 295 295 295 295 296 295 294 294 293 293 293 294 296 298 299 299 298 298 297 297 297 297 297 297
Wind_Speed
3 2 2 2 1 2 2 4 5 4 5 5 4 4 5 7 5 5 6 6 6 7 6 7 8 6 6 7 6 6 5 4 4 4 5 6 7 6 7 8 8 8 8 8 9 14 17 18 19 20 21 20 17 15 13 12 12 14 16 18 19 17 16 17 18 17 17 18 19 18 18 17 16 16 16 16 15 14 13 14 15 15 16 17 17 19 20
3 3 3 2 1 1 1 3 4 4 6 6 4 3 4 5 4 4 5 6 8 8 7 8 6 4 6 6 5 5 5 4 4 5 6 7 7 7 8 9 9 8 8 9 10 13 16 18 20 21 22 21 18 16 14 13 12 13 14 16 17 18 18 19 19 19 18 18 18 18 18 16 16 16 16 17 17 17 16 15 15 16 16 17 18 19 20
4 5 5 5 2 1 2 4 3 1 3 3 1 1 3 2 2 2 4 2 7 7 6 7 5 4 3 4 5 5 5 4 4 5 6 7 8 7 8 9 9 7 7 8 10 13 17 21 22 22 23 23 20 18 17 15 14 14 15 17 17 18 19 20 20 20 20 19 18 19 18 17 16 16 16 17 19 19 19 18 18 18 18 19 20 21 21
4 4 5 6 5 4 2 6 5 3 4 3 3 3 4 5 4 3 3 1 6 5 3 3 4 4 3 4 6 6 6 5 4 6 6 7 8 8 7 8 8 8 8 8 10 15 19 23 23 23 24 23 21 20 20 18 16 16 17 18 19 19 19 19 20 21 21 21 20 20 20 19 18 17 17 18 19 21 21 22 21 21 21 21 22 23 23
5 5 5 4 5 6 4 7 5 7 5 4 4 3 5 6 7 7 4 5 6 4 2 1 3 4 4 5 5 4 5 6 5 6 7 7 7 7 6 8 8 8 9 11 14 18 21 22 21 21 21 21 22 21 20 19 18 18 19 20 20 21 20 20 21 22 22 22 22 22 22 22 21 20 20 21 21 22 23 23 24 24 25 25 25 25 26
4 7 5 4 4 2 5 6 5 6 5 5 6 5 6 8 5 3 4 5 5 4 2 4 5 5 4 4 4 4 5 5 5 6 6 6 7 7 7 7 8 9 11 14 17 18 18 17 16 15 15 17 19 20 20 20 20 19 19 20 21 22 22 22 22 23 23 23 23 23 24 24 24 24 24 24 23 23 24 24 25 26 27 28 28 28 29
1 3 5 5 2 6 8 6 3 5 5 6 7 7 6 8 8 6 6 6 7 6 6 6 6 6 5 4 5 5 5 5 5 5 6 7 6 7 7 6 7 9 11 14 15 14 12 12 11 11 11 13 17 19 21 21 22 21 21 21 21 22 23 24 24 24 25 25 25 24 24 25 26 27 27 27 26 26 26 26 26 27 27 28 29 30 31
1 1 4 1 6 8 7 6 3 3 2 4 3 5 7 7 10 8 7 8 8 6 6 6 4 5 4 3 2 3 4 3 6 4 5 6 6 6 7 7 8 9 9 10 11 12 11 11 11 11 11 12 15 17 18 19 20 21 20 21 23 24 24 26 26 26 26 26 27 26 25 26 27 28 29 30 29 29 28 28 28 28 28 29 30 31 31
2 2 2 3 5 7 7 4 3 4 3 5 6 2 7 7 8 8 6 6 7 6 5 4 2 0 3 5 3 4 6 3 5 6 5 5 5 5 6 7 8 9 9 9 10 12 14 14 13 12 12 13 14 15 16 17 18 18 19 21 24 26 26 27 27 27 27 28 28 28 28 28 28 29 30 31 31 31 30 30 30 31 31 31 31 32 32
2 4 0 3 2 5 7 7 7 4 3 6 7 3 5 6 6 8 7 6 7 5 3 1 3 4 5 3 3 5 6 4 1 2 2 1 2 4 6 8 8 8 7 7 9 10 11 12 12 11 11 12 13 14 14 14 15 17 18 21 24 26 28 29 29 28 28 28 28 29 30 30 30 31 31 32 33 32 31 32 32 32 32 32 32 32 33
2 5 2 3 3 5 8 9 8 5 3 6 5 4 5 7 6 8 8 7 7 6 5 3 4 5 3 3 5 5 4 4 3 3 4 6 9 10 10 11 12 12 12 12 14 14 15 15 14 12 11 11 12 12 12 12 13 14 16 18 20 22 24 27 28 29 29 28 28 29 30 31 31 32 33 33 34 33 33 33 33 32 31 30 30 31 33
3 4 3 3 4 5 7 8 7 4 2 5 8 3 7 7 6 7 8 8 8 7 6 5 6 5 5 6 6 5 4 3 4 4 4 6 9 11 12 12 12 13 15 17 17 17 17 16 15 15 14 14 14 13 13 13 13 15 16 17 18 19 20 22 24 26 28 28 29 29 30 31 32 32 33 33 33 34 33 33 32 32 31 28 26 27 31
4 5 3 3 4 6 7 6 5 4 3 6 6 4 8 6 5 7 8 8 7 7 7 6 5 5 6 5 4 1 1 2 4 4 5 6 8 12 13 13 14 15 17 18 17 17 17 16 17 18 16 16 17 16 16 16 17 19 20 21 20 20 21 22 23 25 25 26 29 30 30 30 31 31 32 32 33 33 32 31 30 30 30 29 26 26 28
3 4 3 2 4 5 4 3 3 3 3 2 5 7 5 4 7 7 7 7 7 7 7 6 5 5 4 3 3 4 3 4 3 3 5 9 11 12 14 16 16 16 17 17 17 17 18 18 19 19 19 19 20 20 20 20 22 23 23 23 22 21 21 22 24 26 26 25 25 27 28 28 28 29 29 29 30 30 29 28 27 27 28 28 28 28 28
3 2 2 1 4 5 3 5 3 1 3 5 6 4 2 3 6 7 6 6 6 7 7 6 5 5 4 4 5 4 3 3 4 4 6 9 10 11 14 16 16 17 17 18 18 19 19 19 20 20 20 21 21 21 22 23 24 25 25 25 24 23 22 21 22 24 25 24 23 22 24 24 24 26 27 27 27 26 25 25 24 25 26 26 25 26 27
4 3 3 4 5 5 4 4 4 5 5 5 3 3 3 3 4 5 6 6 6 7 7 6 5 5 5 5 4 5 4 3 5 5 7 9 9 10 13 14 15 17 17 17 18 19 20 20 21 21 21 21 22 23 24 26 26 27 27 27 27 26 23 21 21 21 21 22 21 20 19 18 18 21 23 24 24 23 22 21 20 22 23 23 22 22 24
4 5 6 6 4 4 4 4 5 6 6 4 4 4 4 4 5 5 5 6 6 6 6 6 6 4 4 5 4 4 5 4 4 5 7 8 9 11 12 13 14 15 16 16 18 20 20 21 21 21 21 21 21 23 24 25 26 27 28 28 28 27 26 25 23 19 17 18 19 17 15 14 14 16 18 19 20 19 17 16 16 19 21 20 19 19 20
3 3 3 3 3 4 5 4 5 6 6 4 4 5 5 4 5 5 5 6 7 6 6 6 5 4 5 6 4 4 5 4 4 5 7 9 11 12 13 13 13 14 15 17 18 19 20 21 21 21 21 22 22 23 25 25 24 24 24 24 23 21 20 19 17 15 14 15 15 15 15 14 13 13 14 15 16 16 14 13 13 15 17 17 17 17 18
1 2 3 4 4 5 5 5 4 4 5 4 3 4 4 2 3 4 4 5 6 6 6 6 7 6 6 7 6 4 5 5 4 5 8 9 11 11 12 12 12 14 16 17 17 18 19 19 20 21 22 23 23 24 27 29 28 25 23 22 22 21 20 20 20 21 21 21 21 21 21 21 20 20 19 18 17 17 15 14 12 12 12 12 12 13 15
1 3 6 6 5 5 5 4 3 3 4 3 1 2 2 3 4 3 3 5 5 5 4 6 8 7 5 5 6 5 4 4 4 6 8 9 9 10 11 12 13 15 16 16 15 16 16 17 18 19 20 21 22 23 25 27 27 26 26 26 26 26 26 26 26 25 25 25 24 24 24 23 22 22 23 24 24 22 20 19 18 17 16 14 14 13 14
3 3 4 5 5 6 6 4 3 4 4 2 2 3 5 6 6 5 5 5 5 5 5 5 7 7 4 4 5 5 4 4 5 5 7 8 9 10 11 13 14 15 15 14 14 14 15 15 16 17 17 19 20 21 22 23 23 23 22 22 24 24 24 24 24 24 24 23 23 24 24 23 22 21 20 22 24 23 22 21 20 20 19 19 18 16 15
3 2 2 2 2 3 6 6 6 6 4 2 1 3 6 6 7 8 7 5 5 7 7 7 7 8 6 5 5 5 4 4 6 7 8 10 11 11 11 12 13 13 13 13 13 13 14 14 15 15 15 16 17 19 19 19 19 19 19 20 21 21 21 22 22 22 23 23 22 23 23 23 23 22 21 21 21 22 23 24 23 21 19 18 18 16 16
5 6 6 3 2 3 6 6 5 6 4 1 2 2 2 4 5 6 7 7 6 5 4 4 7 7 6 6 6 5 4 5 7 7 8 10 11 10 10 10 11 11 11 11 12 13 13 14 14 15 15 16 17 18 17 16 16 17 18 19 20 19 19 20 20 20 21 22 22 22 23 22 23 23 24 23 22 19 19 22 23 21 16 14 15 16 17
3 5 6 5 3 4 6 5 5 6 4 3 5 4 2 0 1 2 4 5 6 6 5 5 7 9 8 8 8 7 5 5 7 7 8 8 9 8 8 8 9 9 9 10 11 12 13 14 15 16 16 16 16 16 15 15 15 17 18 18 19 19 19 20 20 20 20 20 21 21 22 22 21 21 21 22 21 18 15 15 16 15 13 12 12 12 14
2 5 5 5 5 6 6 5 4 5 4 4 4 2 1 3 6 6 5 5 6 7 7 6 6 8 9 9 9 8 7 6 6 6 6 6 6 6 7 7 7 8 8 9 10 11 12 13 14 15 15 16 16 15 14 14 15 16 18 18 19 19 20 22 22 22 21 20 21 21 21 20 20 20 19 18 18 18 18 17 16 14 13 13 11 11 12
5 5 2 1 3 4 3 3 4 5 5 2 4 3 4 9 12 11 10 10 11 11 11 10 8 8 8 8 8 7 8 7 6 4 3 4 5 5 6 6 6 7 7 7 8 9 10 11 12 13 13 13 14 13 13 13 15 16 17 19 19 20 22 23 24 23 22 21 21 21 20 20 19 19 18 17 17 18 19 19 19 18 18 17 14 14 14
5 4 1 2 5 5 3 3 3 3 3 3 7 8 11 16 18 16 15 16 16 17 16 13 11 10 9 8 7 6 6 5 3 1 2 3 4 4 5 5 6 6 7 7 8 8 9 10 11 11 11 11 11 11 11 12 13 15 17 18 20 21 23 24 25 24 22 21 20 20 20 20 19 18 18 18 17 17 16 16 16 18 20 20 19 17 18
5 4 4 4 6 5 3 2 2 4 5 5 8 10 13 15 15 13 12 12 14 16 15 10 8 9 8 7 7 7 5 2 1 1 3 4 3 3 4 5 6 8 9 9 10 9 9 9 10 10 10 10 10 10 10 10 11 13 15 17 18 20 22 23 24 25 23 22 21 20 19 18 18 18 17 17 17 18 18 17 17 17 20 22 21 19 18
4 4 3 4 4 4 4 5 6 6 5 6 8 10 11 12 10 8 7 7 9 11 9 6 7 8 6 4 4 4 3 1 1 3 4 5 4 3 4 6 8 9 10 10 11 11 10 10 10 9 10 10 10 10 9 8 9 11 13 15 16 18 19 20 21 23 23 22 21 19 17 16 16 17 17 18 18 19 19 20 21 20 21 23 23 22 20
3 3 2 1 3 6 7 6 6 5 5 7 8 8 8 10 9 6 5 5 6 6 5 6 7 7 6 6 5 4 2 2 2 3 5 6 6 5 6 7 9 10 11 11 11 11 11 10 9 9 9 11 11 11 9 8 8 9 11 13 15 16 18 19 19 20 22 22 21 19 16 14 15 15 16 16 18 18 19 20 20 21 21 22 23 23 23
4 4 4 4 4 6 6 6 6 5 5 6 8 7 7 8 8 6 4 4 5 4 5 7 8 7 7 6 6 4 3 2 3 4 5 7 6 6 6 7 8 9 11 11 11 11 11 10 9 8 9 11 13 13 11 9 9 10 11 13 15 16 18 19 20 20 20 19 19 18 15 13 14 14 14 15 16 17 19 20 20 20 21 22 22 22 23
6 6 6 5 5 6 6 5 5 6 5 6 7 6 5 6 7 6 5 4 5 5 6 7 7 6 5 4 3 3 3 3 3 4 5 6 6 7 8 8 9 10 11 11 11 11 11 10 9 8 9 11 14 16 14 12 13 13 13 14 15 17 19 20 21 22 21 20 19 18 16 14 13 14 13 14 15 16 17 18 19 20 21 21 22 23 24
6 5 4 4 5 7 6 4 5 5 5 5 5 4 4 6 6 6 5 6 5 5 5 5 4 3 3 3 3 3 3 2 2 3 5 6 7 9 9 10 12 12 12 12 12 11 11 9 8 7 9 12 15 18 18 15 14 15 16 16 17 19 21 22 23 23 23 22 20 19 17 15 14 13 13 14 14 15 16 17 17 19 19 21 22 24 25
5 4 4 4 4 5 5 4 4 4 4 4 4 4 5 6 7 7 6 6 5 3 3 3 3 2 1 1 2 2 2 2 2 4 6 7 9 11 12 13 14 13 12 13 13 12 10 8 7 8 10 13 16 17 17 16 15 15 15 16 18 20 23 24 24 24 24 24 22 20 18 16 14 13 13 13 14 14 15 15 16 17 19 21 23 25 26
6 6 7 7 6 6 6 5 4 4 5 4 3 4 5 6 7 6 5 4 3 3 3 2 2 2 1 1 2 3 4 4 4 6 8 9 11 13 14 14 13 12 12 12 12 12 11 9 8 9 12 14 15 15 14 14 15 16 16 16 18 19 21 23 24 24 24 24 22 20 18 17 15 13 13 14 14 15 15 15 15 17 19 21 24 26 27
10 9 7 6 7 8 7 5 5 5 5 5 5 5 5 6 6 5 4 4 3 3 2 1 1 2 3 4 4 5 6 6 7 8 9 11 12 12 11 11 12 12 13 13 14 13 11 10 10 12 13 14 13 12 12 13 15 16 17 18 19 20 21 21 22 22 22 21 20 18 18 17 16 15 14 15 16 16 16 16 17 19 21 23 25 26 27
11 9 6 5 7 7 5 4 6 7 7 6 6 6 6 5 5 4 3 3 3 2 1 1 2 4 5 6 6 7 7 7 7 8 9 10 10 9 10 11 13 14 14 14 15 14 12 11 11 12 13 13 13 13 14 15 16 17 18 19 19 18 18 18 18 19 19 18 18 17 17 17 17 16 15 16 17 18 17 17 19 21 23 25 26 26 27
7 5 3 2 3 5 5 5 6 7 7 6 6 5 5 5 4 2 3 3 3 3 3 3 3 4 5 5 6 7 8 7 7 7 7 6 6 8 10 12 13 12 11 11 13 13 13 12 12 13 14 15 15 15 15 16 16 17 17 17 17 17 17 18 18 18 18 18 17 17 17 18 18 18 18 18 19 19 17 17 19 22 24 25 26 26 27
1 2 4 4 5 6 6 5 5 6 8 8 7 5 5 4 3 3 4 4 4 4 3 3 3 4 5 6 6 7 8 7 5 5 5 5 7 8 9 10 11 10 9 10 11 12 12 12 13 13 13 14 14 15 15 16 17 17 18 18 19 20 20 20 20 20 20 19 19 19 19 19 20 20 20 20 19 18 17 17 19 22 24 25 26 26 27
3 4 5 6 6 7 7 7 6 4 6 9 8 6 5 3 2 4 5 5 5 3 2 1 3 4 5 6 6 6 6 5 5 6 7 8 9 9 9 10 11 10 10 10 10 11 11 11 12 12 13 13 14 15 16 17 18 19 19 20 20 20 20 21 21 22 22 21 21 21 21 21 21 20 21 21 19 17 16 17 20 22 24 25 26 26 27
4 5 5 6 7 8 8 8 8 8 7 8 7 5 4 3 3 4 5 5 4 3 3 5 7 7 7 7 8 8 8 8 9 9 8 9 10 10 9 9 10 10 9 10 10 10 11 11 12 12 13 14 15 16 17 18 18 18 19 19 19 19 20 20 21 21 22 22 22 21 21 21 21 21 22 21 19 17 16 19 21 23 24 25 26 26 25
5 5 6 7 7 7 7 7 8 8 8 7 5 4 3 3 2 3 4 5 6 8 9 9 9 10 10 11 12 12 11 10 10 9 8 8 8 8 7 7 8 8 9 9 10 11 11 12 12 13 14 15 16 17 17 17 17 18 18 18 18 18 19 20 21 22 22 23 23 23 23 22 22 23 22 20 18 16 18 21 23 24 25 26 26 25 22
6 4 5 7 7 6 6 8 8 7 5 4 2 1 1 1 1 2 4 6 9 10 11 11 11 12 12 12 12 11 10 8 8 7 7 6 6 6 6 6 7 8 9 10 10 10 10 11 12 13 14 15 15 16 16 16 17 17 18 17 17 17 19 20 21 22 23 24 25 25 25 25 24 24 22 19 18 19 21 22 23 24 26 26 25 22 20
8 7 5 5 6 6 7 8 7 6 4 3 1 1 1 1 0 2 6 8 10 11 12 13 13 13 11 10 9 9 7 6 6 5 5 5 5 5 5 5 6 8 8 9 9 9 9 9 11 12 13 13 14 14 15 16 16 16 17 16 16 17 18 20 21 22 23 25 25 26 26 26 26 25 23 21 20 22 23 22 23 25 25 24 22 20 19
9 7 6 5 5 6 8 8 6 5 3 1 1 1 2 1 0 3 7 10 11 11 12 12 12 11 10 8 7 6 5 4 4 4 4 4 4 4 5 6 7 8 8 8 8 8 8 8 9 10 11 12 12 13 15 16 16 15 16 16 16 16 17 18 20 21 22 23 24 25 26 27 27 26 24 23 23 24 23 22 23 24 24 22 20 19 19
7 6 6 6 5 4 4 4 4 3 2 3 3 3 4 3 2 6 10 11 10 11 11 11 10 9 8 7 6 5 4 3 2 2 3 2 3 5 6 7 8 8 8 8 9 9 9 9 9 9 10 11 12 12 14 16 15 15 15 16 16 17 17 18 18 19 21 22 23 24 25 26 27 27 26 25 24 24 23 22 23 24 23 21 20 19 19
5 3 4 4 4 2 2 2 2 2 1 2 3 2 3 3 5 8 10 9 9 10 11 10 9 8 6 5 4 4 3 3 4 3 2 2 3 5 6 7 8 9 10 11 12 11 11 11 10 9 10 12 13 13 14 16 16 16 17 18 18 19 19 19 19 20 21 22 24 25 26 27 28 28 28 27 25 24 23 22 23 24 23 21 19 19 20
6 6 6 5 4 3 2 2 1 0 1 1 2 2 1 4 7 8 8 7 8 10 11 10 9 7 5 4 3 3 3 2 2 2 2 2 3 4 6 7 9 9 10 11 11 11 11 11 10 9 10 13 14 14 14 16 17 18 19 20 21 21 22 21 21 21 22 24 26 28 29 30 30 30 30 29 27 24 22 22 23 24 22 20 18 19 20
6 10 11 7 3 1 0 2 1 1 2 2 3 3 4 7 9 8 7 8 9 11 12 10 8 6 5 4 4 3 2 2 1 1 2 3 4 6 7 8 9 9 9 10 10 10 10 11 11 11 12 13 13 14 15 16 17 18 20 21 22 23 24 24 24 24 25 27 29 30 32 33 32 32 31 30 28 24 22 21 23 24 23 20 19 19 20
9 11 10 5 0 1 0 2 3 3 4 5 5 4 6 9 9 7 6 8 10 11 11 9 7 7 6 5 4 3 3 2 2 1 2 4 6 8 9 9 9 9 9 10 11 11 11 12 12 13 13 13 13 14 16 17 18 20 21 23 24 26 26 27 27 27 28 29 31 32 32 33 32 31 31 30 27 23 21 20 22 24 22 19 18 18 20
9 10 7 3 1 2 3 4 5 6 7 7 6 6 8 9 8 7 6 8 10 11 10 8 7 7 7 5 4 4 4 3 2 1 3 5 7 8 8 9 9 9 10 11 12 12 12 13 13 13 13 13 14 15 16 18 20 22 24 25 26 27 27 27 28 28 29 30 31 31 31 31 31 30 30 29 26 22 19 20 21 22 21 18 17 18 19
8 8 6 5 4 4 4 5 6 8 9 8 7 9 10 9 7 7 7 9 9 9 9 8 8 8 7 5 4 5 4 3 1 2 4 5 6 7 8 9 9 10 11 11 12 12 12 12 12 12 12 13 15 16 18 20 22 24 25 25 25 26 26 26 27 28 29 30 31 31 30 30 29 29 29 27 23 19 18 19 20 21 20 18 17 17 18
Wind_Direction
280 210 270 299 176 199 197 196 218 198 169 175 184 203 196 150 142 247 236 178 198 245 258 254 252 253 263 271 271 267 261 236 209 214 232 240 244 240 236 243 241 239 247 252 253 259 264 269 270 271 272 273 273 271 267 267 266 263 260 257 257 256 249 246 248 249 252 253 254 258 261 257 254 258 263 264 264 266 267 264 259 258 258 258 256 253 251
328 344 345 353 150 246 284 245 240 200 180 192 198 209 197 164 182 222 183 185 233 246 242 250 258 251 249 266 286 284 271 245 211 212 226 235 239 232 229 241 244 238 245 254 258 264 267 268 268 268 269 267 263 259 258 259 259 261 261 259 258 255 251 250 251 251 252 253 253 253 254 254 252 254 260 264 262 260 261 262 259 255 254 254 254 253 252
304 326 3 17 23 212 244 292 308 140 157 198 219 177 173 169 244 226 135 178 266 266 242 247 282 313 279 278 294 282 271 261 230 224 235 239 242 237 231 240 249 248 250 258 262 262 262 262 263 263 266 266 260 254 253 252 253 257 258 259 260 257 254 254 254 254 254 255 253 249 250 255 255 254 256 258 259 259 258 259 259 256 253 251 250 250 251
275 312 6 353 3 57 10 313 294 180 153 188 220 203 179 175 174 150 109 251 259 267 282 273 291 321 307 273 275 280 283 272 231 225 239 240 240 241 235 240 251 252 249 251 253 255 260 263 262 261 262 263 259 255 254 252 252 254 256 257 259 258 257 256 255 254 255 256 254 248 247 252 256 255 255 254 255 256 256 257 258 256 254 252 250 250 250
260 298 354 343 10 37 339 286 229 185 185 222 251 265 226 192 150 136 168 223 232 256 340 327 285 306 290 259 256 266 283 282 246 229 237 242 246 248 238 240 247 248 248 250 252 257 264 267 267 265 262 259 257 258 259 258 255 254 255 257 259 259 259 257 255 255 256 256 255 250 247 250 253 254 255 255 255 256 256 258 257 256 256 255 254 253 251
265 292 342 9 17 358 262 245 183 174 198 205 215 243 230 201 179 181 219 234 248 265 242 205 224 243 244 254 264 257 262 266 255 244 240 242 252 254 246 244 247 248 251 255 258 262 267 270 272 271 264 257 256 257 258 258 258 258 259 260 261 262 262 259 257 256 255 255 255 253 251 250 251 253 254 255 257 257 258 258 257 257 258 258 258 258 256
243 312 22 30 295 241 244 264 251 219 208 180 196 250 251 206 209 244 261 254 249 244 229 220 224 235 252 280 281 278 267 234 224 242 250 247 251 255 256 255 252 251 253 259 268 274 278 283 284 279 272 265 260 257 256 257 259 261 262 263 264 264 264 263 261 258 256 256 256 255 254 252 251 252 254 255 257 257 257 257 257 259 261 262 263 263 262
186 41 73 145 247 260 280 304 279 210 159 141 180 287 284 222 198 208 230 247 250 244 248 255 241 241 278 312 273 294 316 242 203 203 237 247 249 248 250 259 267 275 281 287 296 304 312 318 316 309 305 297 283 274 269 268 268 269 269 268 268 268 267 267 267 264 261 259 258 258 258 255 253 254 255 256 257 257 257 257 258 259 260 262 264 265 266
161 142 173 243 290 307 308 295 222 184 160 157 162 232 278 243 191 179 199 244 257 250 255 282 309 346 29 30 356 333 342 295 216 206 233 248 248 255 271 288 297 304 309 315 324 327 330 337 338 331 326 319 310 302 294 290 289 289 287 282 278 275 274 274 274 272 268 265 263 263 260 257 256 257 258 259 260 259 257 257 258 259 259 261 262 264 265
106 109 184 297 310 289 270 252 248 242 183 166 153 148 286 267 208 183 186 212 232 232 228 290 20 48 70 66 307 314 332 329 191 180 266 339 43 12 6 15 17 13 5 3 8 2 360 7 6 355 346 338 330 324 319 314 309 305 300 295 291 288 285 284 283 281 277 271 268 266 263 260 259 259 259 261 262 262 260 259 261 262 263 264 264 264 264
113 122 162 219 210 240 248 245 264 281 204 162 117 54 306 270 216 188 187 203 214 205 189 161 103 87 114 215 257 274 291 320 32 65 27 34 51 50 45 46 45 46 53 58 56 51 45 40 34 27 20 11 0 353 348 342 331 321 316 312 309 305 301 298 294 291 286 280 274 270 266 265 264 263 263 263 264 263 262 261 263 265 265 265 268 271 270
167 143 174 224 226 248 254 247 260 267 186 108 77 38 279 259 215 189 185 197 204 188 166 150 136 142 176 211 231 240 253 304 11 43 32 28 43 53 55 57 60 63 64 64 61 54 48 42 36 32 27 21 15 5 356 349 339 334 331 327 323 319 314 311 305 299 293 287 281 276 273 271 270 268 267 266 266 265 264 262 263 264 262 261 266 276 279
161 161 197 258 256 247 251 248 232 203 127 78 86 208 238 223 196 197 190 190 193 170 155 161 179 199 207 196 193 235 22 50 42 47 68 73 66 63 61 63 69 71 65 61 57 49 43 38 33 28 22 17 13 4 355 350 343 338 334 330 327 324 320 318 315 310 303 294 286 281 279 277 275 273 271 270 269 269 268 266 264 263 263 258 256 262 272
154 169 192 278 282 249 208 181 194 176 143 161 207 220 224 185 179 190 198 200 191 167 167 186 196 201 205 173 113 73 80 108 89 54 73 78 70 66 65 62 63 63 58 53 49 42 37 33 28 23 16 11 8 0 353 350 345 341 336 330 325 322 320 320 319 317 313 306 296 289 285 282 278 277 278 275 273 272 271 269 267 265 264 261 255 256 265
143 118 141 212 265 253 173 126 113 161 182 207 220 207 197 205 184 177 196 214 194 169 181 208 199 161 135 109 99 95 106 120 99 76 73 71 64 61 60 55 52 53 49 43 38 36 32 27 23 18 12 6 1 353 347 344 340 336 332 328 322 317 313 313 316 317 316 313 307 299 296 293 286 284 285 282 278 276 273 270 266 264 262 260 258 261 267
139 141 195 207 218 238 220 160 174 210 211 214 209 176 184 217 192 175 195 215 202 181 180 181 172 143 118 118 125 112 100 97 88 75 68 68 65 60 56 52 48 48 45 37 32 31 27 22 20 17 12 6 360 352 344 339 334 329 325 321 317 312 307 306 313 321 323 322 319 314 311 310 302 296 295 292 289 286 282 276 269 264 264 263 260 261 266
167 178 211 228 232 239 241 214 211 239 260 246 202 203 221 218 196 183 190 196 191 183 167 146 136 136 135 139 142 128 116 102 86 79 70 66 64 59 55 53 49 48 45 37 31 29 27 24 23 21 19 15 7 359 351 343 334 327 321 316 313 312 312 314 320 328 333 336 338 339 340 337 325 314 307 300 297 296 293 287 276 270 271 272 269 267 268
250 230 234 277 292 268 257 251 235 242 263 255 197 209 238 224 186 172 175 179 173 169 166 144 125 136 147 133 127 139 131 110 87 85 75 62 59 57 53 50 49 48 47 43 38 35 33 32 32 33 33 32 26 20 15 8 357 343 333 329 329 332 334 337 346 358 2 5 14 23 25 25 18 0 341 325 318 316 311 301 287 278 278 281 282 281 278
264 262 280 297 291 272 274 290 287 262 265 262 220 219 238 217 154 157 160 157 150 148 153 142 132 145 154 139 137 147 132 114 96 78 68 61 57 55 52 52 54 54 53 51 49 46 42 41 43 44 44 42 37 32 29 27 23 19 18 19 21 24 26 28 34 40 39 38 41 42 40 41 42 35 25 15 6 357 349 336 321 308 300 295 292 290 290
199 251 275 284 284 282 282 281 282 286 287 285 256 203 159 109 107 113 109 116 126 129 135 139 136 143 159 150 145 147 128 103 87 73 70 71 69 66 66 67 66 64 64 64 60 53 47 45 44 42 40 37 33 29 28 27 26 29 35 38 38 38 37 35 35 37 37 34 32 29 25 25 27 26 24 22 18 15 11 1 347 337 328 319 313 311 310
311 294 313 332 338 329 321 316 312 306 300 314 43 95 107 107 108 102 82 75 93 114 134 144 134 139 173 177 141 134 130 110 99 92 87 85 83 83 81 78 74 72 71 67 60 51 43 39 36 32 28 26 25 24 24 23 21 24 29 32 33 32 30 29 28 27 25 23 21 17 12 8 6 7 8 9 8 6 5 5 359 349 339 331 327 327 324
311 267 279 325 357 305 294 311 329 323 316 334 39 116 129 136 145 139 116 88 87 111 138 156 148 144 165 179 150 135 137 131 120 111 102 94 91 89 85 80 76 73 68 58 50 42 35 30 27 23 19 18 19 19 20 21 21 21 21 21 22 22 20 19 19 17 15 13 11 10 7 1 356 352 350 354 358 352 345 348 351 349 344 342 343 343 339
234 235 234 215 164 250 262 275 302 308 309 306 262 239 169 165 177 163 139 127 123 114 112 139 150 144 147 156 147 126 115 123 119 106 96 91 88 84 80 75 69 64 57 48 40 35 30 25 23 18 13 11 12 13 15 18 19 17 15 15 16 16 14 13 11 7 5 4 0 1 3 0 355 351 347 349 353 348 336 335 339 339 340 344 349 352 350
224 245 225 189 180 254 265 269 284 296 291 233 235 268 303 29 128 108 103 112 127 126 105 101 126 135 138 143 139 125 118 125 119 107 98 93 90 84 74 65 56 47 41 36 32 28 24 20 16 12 9 10 13 15 17 18 18 18 19 19 18 16 13 11 9 6 2 358 355 357 359 357 353 352 349 346 348 348 345 345 345 343 343 344 344 349 351
248 256 216 183 206 245 269 276 272 287 289 238 215 270 295 130 106 88 76 73 91 111 110 92 96 121 136 141 137 132 132 127 116 109 105 99 93 83 65 51 41 32 28 26 23 18 13 10 7 6 7 13 20 24 26 27 27 27 27 24 21 18 14 11 11 9 6 2 359 358 359 356 353 353 351 343 337 338 346 359 7 8 6 1 347 338 341
253 262 256 277 270 274 298 286 270 299 308 221 144 94 99 114 104 93 91 88 83 90 96 91 89 103 120 125 122 125 131 130 128 125 108 89 78 65 49 35 26 19 13 10 7 4 2 360 359 2 9 17 25 29 32 35 34 33 32 29 26 23 19 15 13 11 9 8 5 2 1 360 357 355 354 349 342 339 343 352 1 6 11 13 7 353 348
261 250 206 300 297 294 285 248 256 326 354 120 127 111 109 111 106 97 92 88 84 83 82 84 91 101 110 120 128 140 147 145 147 138 55 39 41 40 30 18 11 2 353 350 348 345 347 349 350 358 9 17 21 23 26 31 34 35 35 33 30 28 24 20 16 13 10 8 8 5 3 3 3 0 358 358 356 353 348 346 347 349 355 3 7 4 360
268 247 201 225 259 258 226 175 94 51 50 87 111 117 114 107 100 96 92 89 91 92 88 91 116 131 141 158 165 164 159 147 96 27 15 4 1 12 9 2 357 349 340 338 337 336 336 335 338 351 3 4 3 5 8 17 28 32 32 30 27 26 24 22 18 14 9 7 6 5 5 6 7 7 7 5 3 0 357 355 352 349 349 355 0 2 2
283 273 229 216 215 175 125 95 80 74 73 79 90 101 104 96 87 86 88 93 105 108 107 120 135 131 134 154 162 152 140 113 358 358 2 354 337 323 326 335 342 343 338 333 331 333 334 327 324 339 354 354 349 346 349 1 17 23 23 23 20 18 17 16 15 13 10 6 3 3 6 10 12 12 12 11 8 5 2 359 356 353 351 353 355 355 355
345 345 14 112 133 123 111 103 98 92 89 90 84 79 85 93 94 91 85 91 102 107 109 112 107 97 92 93 90 88 91 57 12 5 8 6 358 341 327 328 333 335 334 330 325 325 327 323 317 325 343 352 348 338 332 341 358 5 7 9 10 10 9 6 5 6 7 4 1 358 0 7 10 10 10 9 8 6 2 358 354 351 349 348 349 347 346
71 52 60 71 92 102 105 109 111 101 91 95 93 84 82 92 98 100 100 98 97 101 106 106 102 95 88 83 77 71 66 45 21 11 10 14 17 11 355 344 334 323 319 319 316 313 315 315 308 312 336 353 353 344 331 321 325 339 349 354 358 3 3 359 356 356 357 357 356 354 353 356 1 2 2 4 3 0 356 353 349 346 344 343 343 343 345
93 71 69 71 81 95 101 102 104 102 92 92 98 102 105 110 116 123 128 120 114 116 115 106 98 91 82 74 66 51 33 19 7 4 7 13 17 12 2 353 343 331 324 324 321 312 307 303 297 304 330 349 355 354 346 327 311 314 325 336 345 350 352 351 349 347 345 346 347 348 347 346 349 351 351 353 354 351 348 346 343 342 342 341 340 343 346
121 111 125 138 127 120 122 115 104 107 105 100 107 116 114 113 120 131 137 132 127 121 111 96 83 77 65 46 31 15 8 9 4 358 359 1 1 359 354 349 347 344 339 339 337 324 305 292 290 306 330 345 352 356 356 348 331 319 315 318 325 331 335 337 337 337 337 337 338 341 342 340 340 342 341 341 342 342 341 340 340 341 341 339 338 339 339
141 139 141 135 116 116 129 130 115 113 109 98 104 121 127 128 134 141 145 143 132 118 107 88 64 53 43 18 9 5 14 30 358 332 335 342 346 348 347 348 350 348 342 345 354 352 333 311 301 309 326 341 349 354 360 2 358 349 338 328 324 324 326 328 328 328 330 331 332 335 337 336 333 331 330 330 332 332 333 335 336 336 335 334 334 333 333
104 96 87 83 80 91 112 127 133 133 127 124 139 157 160 159 156 151 151 153 135 113 118 112 64 39 16 346 351 0 8 5 337 324 334 344 348 349 352 356 360 359 353 355 6 11 1 347 336 333 338 347 353 359 4 3 360 357 351 342 333 328 325 324 324 324 325 327 329 329 329 328 325 322 320 321 324 325 326 328 331 332 330 329 330 331 332
87 85 78 76 82 93 111 135 157 161 159 166 175 178 178 174 163 151 145 141 127 114 122 119 46 24 19 10 355 340 337 336 333 338 350 355 354 357 8 18 20 17 12 11 13 14 7 359 356 355 355 357 360 2 2 355 347 342 337 332 328 325 322 321 324 326 327 328 329 327 325 324 322 318 316 318 320 322 323 325 328 330 329 328 328 330 332
63 65 58 57 79 104 139 187 191 183 181 179 172 169 169 163 153 138 115 96 84 64 21 1 357 358 1 356 342 335 337 343 349 355 359 0 4 20 38 41 33 26 19 15 16 18 14 5 1 358 354 352 351 350 346 340 335 332 329 326 324 324 325 328 331 332 332 333 332 329 326 325 322 318 316 317 319 321 323 325 328 329 329 329 330 330 330
63 77 104 126 138 159 193 224 216 195 184 175 169 166 157 144 128 94 65 59 51 38 31 23 9 2 2 358 356 3 13 18 17 12 11 17 38 59 59 45 31 23 15 11 15 19 14 4 357 352 347 344 344 345 345 344 342 341 340 339 339 341 342 342 341 338 336 335 331 327 325 324 322 320 319 319 319 320 320 323 327 328 328 329 330 330 329
100 162 178 182 181 181 184 189 196 200 191 180 172 161 144 131 102 59 56 58 50 39 33 30 31 35 35 31 26 26 30 33 32 37 52 68 81 84 71 48 33 27 21 19 22 19 9 360 355 353 352 353 353 353 354 354 353 352 352 351 350 350 350 348 345 343 340 337 333 329 327 326 324 322 320 318 316 316 317 322 327 328 327 328 329 328 327
213 197 180 162 149 144 141 133 128 150 176 173 160 143 134 130 87 48 43 39 30 18 13 64 83 73 63 56 47 39 42 56 70 81 85 78 73 72 60 42 36 36 33 28 25 18 7 1 0 0 1 1 358 354 353 351 348 347 347 347 346 346 346 345 344 343 342 340 337 334 331 329 326 322 319 317 315 315 318 324 327 328 327 328 328 327 325
215 185 161 138 119 109 107 105 101 105 126 142 140 130 128 124 81 42 31 34 45 70 106 112 106 97 89 88 85 79 78 83 83 81 75 64 58 56 47 35 36 41 36 26 20 14 7 3 2 1 360 358 355 352 350 348 347 346 346 346 345 345 345 345 346 347 346 345 341 337 334 331 327 323 321 319 316 316 321 325 327 327 328 327 327 326 325
230 185 147 131 119 106 104 112 116 112 115 126 129 118 109 100 70 46 54 81 103 112 112 110 109 107 104 103 99 94 90 87 84 81 75 65 59 56 49 41 41 40 29 16 9 3 359 358 360 360 358 357 355 353 351 349 349 350 350 350 350 351 353 354 354 355 354 352 350 346 342 336 330 326 324 321 318 319 324 326 327 328 329 329 328 326 324
264 230 167 146 141 133 127 130 131 126 122 126 124 94 61 64 66 86 108 117 122 124 122 119 116 113 109 106 102 97 90 83 80 83 86 82 75 68 56 42 32 21 9 360 353 350 350 354 357 358 357 355 353 352 351 350 350 351 352 352 353 355 357 357 357 357 356 355 354 351 348 343 338 332 328 323 320 323 325 326 327 329 330 329 328 325 322
268 250 211 171 158 155 154 151 147 147 152 159 200 291 305 341 6 151 140 133 130 130 129 127 122 116 111 106 101 97 89 74 63 61 64 70 72 66 51 28 7 353 346 341 337 336 342 350 356 357 357 356 354 351 351 351 351 350 350 351 353 355 356 356 357 357 357 355 353 351 349 346 342 337 330 324 321 322 324 325 326 329 329 328 326 324 322
252 238 212 196 186 178 178 180 180 181 191 227 308 350 40 37 253 170 145 136 135 138 137 132 125 119 114 110 105 101 94 77 60 54 58 61 50 24 7 356 346 341 341 341 337 333 332 339 350 358 358 356 354 353 353 353 352 350 350 350 351 353 354 355 356 356 356 355 354 352 349 347 344 339 333 325 320 320 321 322 324 327 328 326 323 322 322
252 222 208 214 219 209 204 211 213 211 236 304 336 21 56 62 123 150 141 137 142 147 144 137 130 124 120 116 116 117 116 120 118 103 86 63 7 347 349 350 347 344 343 340 338 334 326 324 334 351 357 356 354 354 355 354 352 350 349 349 348 348 348 348 348 350 351 350 350 350 349 347 345 341 336 328 321 318 317 319 321 324 325 325 324 324 325
315 269 233 234 242 245 238 231 225 225 261 315 334 8 61 100 138 147 145 145 152 156 154 150 147 143 135 128 127 134 143 151 153 140 96 32 356 348 350 348 343 340 336 332 331 331 327 321 321 331 345 352 353 353 353 353 352 351 350 350 348 346 344 341 339 339 340 339 340 340 341 342 342 341 338 332 325 318 315 316 319 322 323 324 325 326 328
328 318 305 292 277 270 249 182 162 288 311 285 280 282 176 155 156 155 155 159 165 165 163 161 161 161 159 153 149 150 146 137 136 128 83 36 13 0 353 347 341 340 339 338 339 341 342 340 337 336 342 351 355 355 354 354 353 352 351 350 349 347 344 340 336 334 332 331 332 332 333 333 334 335 334 332 327 319 314 314 317 320 322 323 323 325 328
304 311 308 298 274 252 148 154 158 331 316 275 263 253 195 170 166 165 166 172 174 171 169 170 173 175 173 167 163 164 159 135 101 78 54 27 7 356 351 347 346 346 348 352 355 357 358 357 357 353 350 351 353 354 354 354 353 353 353 352 350 347 345 341 337 333 329 327 326 326 326 326 327 327 328 328 326 321 314 312 316 320 321 321 321 325 330
287 296 293 283 215 71 279 240 247 269 271 265 261 236 191 175 171 168 169 172 173 172 174 178 182 178 172 166 163 165 166 158 139 90 13 354 350 348 348 347 348 351 354 355 356 357 357 355 353 350 348 349 353 356 357 357 356 354 353 350 347 343 340 337 334 332 329 328 327 325 323 323 324 325 325 326 326 321 314 312 317 321 322 321 322 325 329
284 283 278 272 288 290 276 272 274 268 259 254 244 216 193 184 178 175 177 179 178 176 178 181 179 174 171 169 169 172 174 171 169 323 338 343 348 350 350 351 352 354 354 353 353 353 352 350 349 349 352 356 0 2 1 359 355 352 349 347 344 342 341 341 340 339 337 335 333 329 327 326 326 325 326 326 325 320 313 313 318 323 324 322 320 322 327
288 283 286 294 298 296 298 300 287 268 252 238 218 202 197 194 192 189 188 187 186 186 187 185 181 179 180 178 179 184 186 184 194 336 344 353 358 356 355 356 356 354 351 351 351 351 352 353 356 359 4 7 6 3 360 356 353 350 348 348 348 348 349 350 350 347 344 341 337 332 329 327 326 326 327 327 325 319 313 315 322 328 328 326 322 322 325